CZ-6A DEB, 56611

Orbit data source: Space-Track

CZ-6A DEB, 56611 is space debris in SSO originally from a launch on Fri, 11 Nov 2022 UTC launched from the Taiyaun Space Center, China (TSC). Debris objects in space refer to the collection of defunct objects orbiting the Earth. Examples of debris include non-operational satellites, rocket bodies, and fragments generated from explosions, collisions, or faulty payload assembly.

Loading next visibility...
Identifier
56611, 2022-151AEK
Orbit
SSO
Country
Flag of CNCN / PRC
Related business
Manufacturer
SAST
Mission
Spacecraft
Bus & Motor
Unknown
Mass
Unknown
Launch date (UTC)
2022-11-11 (4 years ago)
Launch vehicle
Unknown
Launch site
Taiyaun Space Center, China (TSC)
Object type
Payload
Rocket body
Debris
Shape & HBR
Unknown shape, 0.1 m
Radar Cross Section
Medium (>0.1 m² and <1 m²)

Expand to show TLE details & history
Last TLE update: 16 hours ago

TLE from 16 hours ago
0 CZ-6A DEB
1 56611U 22151AEK 26264.27316369  .00000165  00000-0  11548-3 0  9991
2 56611  98.8311 260.3632 0043317  65.1502 295.4164 14.10701840175493
Epoch: 2026-09-21T06:33Z
TLE epoch observation values (Epoch: 2026-09-21T06:33:21.342Z)
Latitude
-0.00004°
Longitude
161.86892°
Altitude
846.526 km
Speed
7.436 km/s
True Right ascension
17h 21m 27s
True Declination
0° 00' 00"
Sunlit
Object was in daylight at epoch
Visualization orbit readout
Latitude
Unknown
Longitude
Unknown
Altitude
Unknown
Speed
Unknown
Apparent Right ascension
Unknown
Apparent Declination
Unknown
Sunlit
N/A
Visualization observer readout
Local Sidereal Time
15:13:39
Azimuth
Unknown
Elevation
Unknown
Doppler factor
Unknown
Orbital elements
Apogee altitude
885.476 km
Perigee altitude
822.82 km
Semi-major axis
7,232.285 km
Eccentricity
0.00433
Inclination
98.8311°
RAAN
260.3632°
Arg. of periapsis
65.1502°
True anomaly
294.96703°
Mean anomaly
295.4164°
Eccentric anomaly
295.19182°
Mean motion
3.52882 °/min
Orbital period
102.02 mins
BSTAR
0.00011548
Loading maneuver chart data...
Computing Atmospheric mass density...
Loading historical data...
Loading historical data...
Loading historical data...
Loading historical data...
Loading historical data...
Loading historical data...
Loading historical data...

Documentation

Showing up to 5 results
|